Lid_Strength_Index
1 2 2 2 2 2 2 2 2 2 2 2 2 2 2 2 2 2 2 2 2 2 2 2 1 1 3 8 7 3 -5 -4 0 3 5 6 7 8 10 9 9 10 9 8 8 7 8
1 1 2 2 2 2 2 2 2 2 2 3 3 2 2 2 2 2 2 2 3 2 2 2 1 0 4 9 4 3 2 4 4 4 5 6 7 7 9 9 10 9 9 9 9 8 7
1 1 1 2 2 2 2 2 2 2 2 3 3 3 3 2 2 2 2 3 3 2 2 1 0 2 6 8 4 4 5 5 5 5 5 6 6 7 8 9 8 9 11 10 10 9 9
1 1 2 2 2 2 2 2 2 2 2 3 3 3 3 2 2 2 2 2 2 2 1 0 0 4 8 3 4 5 5 4 4 4 5 4 5 7 9 8 8 9 11 13 11 9 9
1 1 2 2 2 2 2 3 2 3 2 3 3 3 3 3 2 2 2 3 2 1 1 0 5 6 7 2 5 4 5 5 4 4 4 3 6 8 7 10 12 11 14 13 11 10 9
1 1 1 2 2 3 3 3 3 3 3 3 3 3 3 3 2 3 3 3 2 2 3 1 3 8 6 6 4 3 4 3 4 5 5 6 8 10 10 12 14 13 13 12 11 10 10
1 1 1 2 2 2 3 3 3 3 3 3 3 3 3 3 3 3 5 4 7 8 7 7 6 6 4 3 3 4 4 4 4 6 9 8 10 12 11 11 10 10 11 12 10 9 10
1 2 2 2 2 3 3 3 3 3 3 3 3 3 3 3 3 3 5 6 4 5 7 5 5 5 4 4 6 4 3 5 6 9 9 10 12 9 8 8 9 11 12 12 10 9 10
2 2 2 2 2 3 3 3 3 3 3 3 3 3 3 3 3 4 5 3 2 4 8 5 5 6 5 5 6 5 4 5 7 9 9 11 9 7 8 9 10 12 12 12 11 11 11
2 2 2 2 3 3 3 3 3 3 3 3 4 3 3 3 4 5 4 2 2 4 10 7 7 5 5 5 6 4 3 5 7 9 9 10 8 8 9 9 9 12 9 9 10 12 15
2 2 2 2 2 3 3 3 3 3 3 4 4 4 4 4 6 6 3 4 4 4 17 7 8 5 5 6 6 4 3 5 8 8 9 10 9 10 10 10 8 10 9 10 10 13 14
1 2 2 2 2 2 3 3 3 3 3 4 3 4 4 4 5 5 4 4 4 10 15 9 7 8 8 7 6 5 5 4 5 8 8 9 7 9 9 8 9 9 11 12 12 14 17
2 2 2 2 2 3 3 3 3 3 3 3 3 4 5 4 6 4 4 5 11 14 8 9 10 8 9 8 7 6 7 8 10 12 12 9 10 8 7 10 9 11 14 17 17 17 17
1 2 2 2 3 3 3 3 3 3 4 4 4 5 5 4 5 4 4 8 15 10 9 7 8 9 9 8 8 7 8 10 8 9 12 12 13 9 7 10 12 13 14 17 19 18 17
1 2 2 2 2 3 3 3 3 4 4 4 5 3 5 4 3 3 6 12 12 10 7 7 8 11 11 8 8 8 9 9 8 9 12 13 12 8 8 8 9 11 13 12 15 14 16
1 1 1 2 2 2 3 3 3 3 4 4 6 3 3 3 3 4 8 11 9 6 6 7 10 9 11 9 9 10 10 7 8 7 9 10 13 8 8 8 9 11 10 15 15 19 19
1 1 2 2 2 2 2 3 3 3 4 4 4 6 3 3 3 7 11 10 7 5 5 7 8 9 9 10 9 10 10 8 6 8 8 9 11 11 8 11 12 11 12 14 14 15 18
1 1 1 2 2 2 2 2 3 4 4 5 7 8 3 4 9 9 10 7 6 6 5 6 6 8 9 9 10 10 10 8 6 7 9 9 11 14 12 8 8 11 13 13 16 16 15
1 1 1 2 2 2 2 2 3 3 4 6 9 8 5 5 11 10 8 7 6 7 7 6 7 7 7 9 12 9 8 6 6 7 9 9 12 16 14 11 9 11 10 12 13 14 15
2 2 1 1 2 2 2 2 2 3 4 6 7 9 7 6 7 9 9 9 8 6 6 6 7 7 8 9 9 10 9 6 5 6 4 7 12 13 15 13 11 12 10 10 12 17 15
2 2 3 2 2 2 2 2 2 3 3 4 5 8 8 10 9 9 8 8 8 8 7 7 8 7 9 11 10 10 8 8 6 5 8 11 14 12 11 10 10 10 10 10 12 12 14
2 2 2 2 3 3 2 2 2 2 3 4 7 7 6 8 8 9 10 9 9 8 8 8 9 7 8 10 9 11 9 10 10 9 11 10 12 12 12 10 10 11 10 10 10 10 11
3 3 2 2 2 2 3 2 2 2 3 5 4 4 6 8 9 11 10 9 8 8 6 6 7 8 9 7 7 8 8 8 8 10 10 10 12 13 15 11 11 14 11 10 10 10 11
4 4 3 3 2 2 2 2 2 2 3 5 5 5 7 9 8 9 8 8 8 7 8 6 7 9 7 7 7 8 9 8 8 8 8 11 12 12 15 13 19 11 8 8 10 10 10
4 4 4 4 3 2 2 2 2 2 2 6 5 5 7 10 8 7 7 9 7 7 8 7 6 6 7 8 10 12 11 10 9 8 10 10 12 14 16 16 13 10 9 10 12 12 9
5 5 4 4 4 3 3 2 2 1 1 5 6 5 5 8 9 5 7 7 9 9 8 7 5 7 7 10 11 14 15 12 13 11 9 10 11 13 15 17 18 12 8 7 9 15 8
6 5 5 4 4 4 3 3 2 1 0 3 5 5 6 8 6 6 8 8 6 8 9 8 7 7 7 11 12 13 13 10 14 14 13 13 13 14 15 16 13 9 7 7 14 13 8
6 6 5 5 4 4 4 3 2 1 1 1 4 3 5 6 5 4 4 7 7 7 10 8 8 8 10 12 12 12 12 11 12 11 12 13 14 15 14 17 17 7 8 12 10 9 8
5 5 6 5 5 4 4 3 3 1 1 0 5 2 1 5 5 3 3 2 3 5 7 8 8 8 8 10 10 10 11 11 12 14 10 13 11 13 12 12 9 8 8 8 7 8 8